Notices

What's New in latest Release from April 7th, 2021:

- Updated Glossary, including Speed of Maximum Gust, and Total Hourly Precipitation

- Updated national and regional climate services offices contacts and prices information

- Addition of station inventory lists for 1981-2010, 1971-2000, and 1961-1990 Normals.

If you haven't already, please take our survey and provide feedback about our website: https://eccc.sondage-survey.ca/f/LanguageSelection.aspx?s=442ca660-fcf1-47c0-95a9-59707d6fd709

Hourly Data Report for November 02, 2006

TORONTO CITY
ONTARIO

43°40'00.000" N
79°24'00.000" W
112.50 m
6158355
71508
XTO

Download Data

Hourly Data (November 2006)
Hourly Data Report for November 2, 2006
TIME
LST
Temp Definition
°C
Dew Point Definition
°C
Rel Hum Definition
%
Precip. Amount Definition
mm

Wind Dir Definition
10's deg

Wind Spd Definition
km/h
Visibility Definition
km
Stn Press Definition
kPa
Hmdx Definition


Wind Chill Definition


Weather Definition


00:00 3.0 -3.5 62   LegendMM LegendMM   100.30     LegendNANA
01:00 2.5 -3.7 64   LegendMM LegendMM   100.32     LegendNANA
02:00 2.1 -3.8 65   LegendMM LegendMM   100.32     LegendNANA
03:00 1.6 -3.6 68   LegendMM LegendMM   100.32     LegendNANA
04:00 1.2 -3.5 71   LegendMM LegendMM   100.32     LegendNANA
05:00 1.0 -3.1 74   LegendMM LegendMM   100.35     LegendNANA
06:00 1.2 -3.6 70   LegendMM LegendMM   100.35     LegendNANA
07:00 0.7 -3.8 72   LegendMM LegendMM   100.34     LegendNANA
08:00 1.3 -3.9 68   LegendMM LegendMM   100.39     LegendNANA
09:00 2.5 -4.1 62   LegendMM LegendMM   100.40     LegendNANA
10:00 4.3 -4.2 54   LegendMM LegendMM   100.39     LegendNANA
11:00 5.4 -4.0 51   LegendMM LegendMM   100.35     LegendNANA
12:00 4.5 -4.4 52   LegendMM LegendMM   100.32     LegendNANA
13:00 4.3 -2.3 62   LegendMM LegendMM   100.32     LegendNANA
14:00 4.2 -3.1 59   LegendMM LegendMM   100.31     LegendNANA
15:00 4.6 -5.6 47   LegendMM LegendMM   100.30     LegendNANA
16:00 3.6 -3.8 58   LegendMM LegendMM   100.40     LegendNANA
17:00 2.2 -2.5 71   LegendMM LegendMM   100.49     LegendNANA
18:00 2.4 -2.5 70   LegendMM LegendMM   100.54     LegendNANA
19:00 2.0 -4.1 64   LegendMM LegendMM   100.60     LegendNANA
20:00 1.2 -3.4 71   LegendMM LegendMM   100.66     LegendNANA
21:00 0.7 -3.3 75   LegendMM LegendMM   100.67     LegendNANA
22:00 0.6 -3.2 76   LegendMM LegendMM   100.73     LegendNANA
23:00 0.4 -3.1 77   LegendMM LegendMM   100.76     LegendNANA

Notes on Data Quality.

Legend

  • E = Estimated
  • M = Missing
  • NA = Not Available*
  • [empty] = Indicates an unobserved value
Date modified: